Zurück zum Katalog

AEHF 3

USA 246

AktivMilitärGEO
NORAD 39256·PAYLOAD·🇺🇸 United States

Gestartet Sep 18, 2013 von Cape Canaveral Space Force Station

Loading…

TLE

AktuellSource: Space-Track

Epoche: Sep 14, 2026, 13:12 UTC

1 39256U 13050A   26257.55053079  .00000022  00000-0  00000-0 0  9994
2 39256   5.5093  66.3111 0092009 188.4168 172.7939  1.00269145 46559

Verfolge AEHF 3 in Echtzeit mit AllMySat

Download on the App Store